Location: Igon
(43.1667°N, 0.2333°W)
Time: 06:31:14
(UTC+00:00)

NOAA 16 DEB - Pass Details

Date: 20 June 2021
Orbit: 682 x 809 km, 98.9° (Epoch: 03 August)

Event Time Altitude Azimuth Distance (km) Brightness Sun altitude
Rises 02:53:37 0° 132° (SE) 3,313 ? -12.7°
Reaches altitude 10° 02:56:13 10° 121° (ESE) 2,392 ? -12.4°
Maximum altitude 03:00:39 28° 64° (ENE) 1,492 ? -11.8°
Drops below altitude 10° 03:05:05 10° 8° (N) 2,398 ? -11.3°
Sets 03:07:43 0° 357° (N) 3,324 ? -11.0°
